Device:,Ski Filip - Horni stanice
s/n:,22962791

Time,Temperature,Relative humidity,Dew point,
,[�C],[%RH],[�C],
2024-04-19 03:21:52,-0.4,99.0,-0.5,
2024-04-19 03:20:52,-0.4,99.0,-0.6,
2024-04-19 03:19:52,-0.4,99.0,-0.5,
2024-04-19 03:18:52,-0.4,99.0,-0.5,
2024-04-19 03:17:52,-0.4,99.0,-0.5,
2024-04-19 03:16:52,-0.4,98.9,-0.5,
2024-04-19 03:15:52,-0.3,99.1,-0.5,
2024-04-19 03:14:52,-0.3,99.1,-0.4,
2024-04-19 03:13:52,-0.3,99.1,-0.4,
2024-04-19 03:12:52,-0.3,99.2,-0.4,
2024-04-19 03:11:52,-0.2,99.2,-0.4,
2024-04-19 03:10:52,-0.2,99.2,-0.4,
2024-04-19 03:09:52,-0.2,99.2,-0.4,
2024-04-19 03:08:52,-0.3,99.1,-0.4,
2024-04-19 03:07:52,-0.2,99.1,-0.4,
2024-04-19 03:06:52,-0.2,99.1,-0.3,
2024-04-19 03:05:52,-0.2,99.0,-0.3,
2024-04-19 03:04:52,-0.2,98.9,-0.3,
2024-04-19 03:03:52,-0.2,98.9,-0.3,
2024-04-19 03:02:52,-0.1,98.9,-0.3,
2024-04-19 03:01:52,-0.1,98.9,-0.2,
2024-04-19 03:00:52,-0.1,98.9,-0.2,
2024-04-19 02:59:52,-0.1,98.9,-0.2,
2024-04-19 02:58:52,-0.1,98.9,-0.2,
2024-04-19 02:57:52,-0.1,98.9,-0.2,
2024-04-19 02:56:52,-0.1,98.8,-0.3,
2024-04-19 02:55:52,-0.1,98.8,-0.3,
2024-04-19 02:54:52,-0.1,98.8,-0.2,
2024-04-19 02:53:52,-0.1,98.7,-0.2,
2024-04-19 02:52:52,-0.1,98.7,-0.2,
2024-04-19 02:51:52,-0.1,98.6,-0.3,
2024-04-19 02:50:52,-0.1,98.5,-0.3,
2024-04-19 02:49:52,-0.1,98.4,-0.3,
2024-04-19 02:48:52,-0.1,98.2,-0.3,
2024-04-19 02:47:52,0.0,98.0,-0.3,
2024-04-19 02:46:52,0.0,97.7,-0.4,
2024-04-19 02:45:52,0.0,97.6,-0.3,
2024-04-19 02:44:52,0.0,97.4,-0.4,
2024-04-19 02:43:52,0.0,97.2,-0.4,
2024-04-19 02:42:52,0.0,96.9,-0.4,
2024-04-19 02:41:52,0.0,96.8,-0.5,
2024-04-19 02:40:52,0.0,96.5,-0.5,
2024-04-19 02:39:52,0.0,96.2,-0.5,
2024-04-19 02:38:52,0.0,95.8,-0.6,
2024-04-19 02:37:52,0.0,95.4,-0.6,
2024-04-19 02:36:52,0.0,95.1,-0.7,
2024-04-19 02:35:52,0.0,95.1,-0.7,
2024-04-19 02:34:52,-0.1,94.8,-0.8,
2024-04-19 02:33:52,-0.2,95.2,-0.9,
2024-04-19 02:32:52,-0.4,95.1,-1.0,
2024-04-19 02:31:52,-0.5,94.3,-1.3,
2024-04-19 02:30:52,-0.7,93.7,-1.6,
2024-04-19 02:29:52,-0.8,91.9,-1.9,
2024-04-19 02:28:52,-0.7,91.7,-1.9,
2024-04-19 02:27:52,-0.7,92.2,-1.8,
2024-04-19 02:26:52,-0.7,93.0,-1.7,
2024-04-19 02:25:52,-0.7,93.5,-1.6,
2024-04-19 02:24:52,-0.7,93.6,-1.6,
2024-04-19 02:23:52,-0.7,93.7,-1.6,
2024-04-19 02:22:52,-0.8,94.0,-1.6,
2024-04-19 02:21:52,-0.8,94.0,-1.7,
2024-04-19 02:20:52,-0.8,94.1,-1.7,
2024-04-19 02:19:52,-0.9,94.0,-1.7,
2024-04-19 02:18:52,-0.9,94.0,-1.7,
2024-04-19 02:17:52,-0.9,93.8,-1.8,
2024-04-19 02:16:52,-0.9,93.8,-1.8,
2024-04-19 02:15:52,-0.9,93.8,-1.7,
2024-04-19 02:14:52,-0.9,93.8,-1.7,
2024-04-19 02:13:52,-0.8,93.5,-1.7,
2024-04-19 02:12:52,-0.8,93.5,-1.7,
2024-04-19 02:11:52,-0.8,92.8,-1.8,
2024-04-19 02:10:52,-0.8,92.3,-1.9,
2024-04-19 02:09:52,-0.8,91.8,-1.9,
2024-04-19 02:08:52,-0.8,91.8,-1.9,
2024-04-19 02:07:52,-0.8,92.1,-2.0,
2024-04-19 02:06:52,-0.9,92.6,-1.9,
2024-04-19 02:05:52,-0.9,93.3,-1.9,
2024-04-19 02:04:52,-1.0,93.4,-1.9,
2024-04-19 02:03:52,-1.0,93.6,-1.9,
2024-04-19 02:02:52,-1.1,93.6,-2.0,
2024-04-19 02:01:52,-1.1,93.2,-2.0,
2024-04-19 02:00:52,-1.1,92.9,-2.1,
2024-04-19 01:59:52,-1.1,92.8,-2.1,
2024-04-19 01:58:52,-1.2,92.9,-2.2,
2024-04-19 01:57:52,-1.2,92.4,-2.3,
2024-04-19 01:56:52,-1.2,92.2,-2.3,
2024-04-19 01:55:52,-1.2,92.2,-2.3,
2024-04-19 01:54:52,-1.2,92.4,-2.3,
2024-04-19 01:53:52,-1.3,92.4,-2.3,
2024-04-19 01:52:52,-1.3,92.2,-2.4,
2024-04-19 01:51:52,-1.3,92.4,-2.4,
2024-04-19 01:50:52,-1.3,92.7,-2.4,
2024-04-19 01:49:52,-1.3,92.6,-2.4,
2024-04-19 01:48:52,-1.4,92.6,-2.4,
2024-04-19 01:47:52,-1.4,92.5,-2.4,
2024-04-19 01:46:52,-1.4,92.7,-2.4,
2024-04-19 01:45:52,-1.4,93.0,-2.4,
2024-04-19 01:44:52,-1.4,92.8,-2.4,
2024-04-19 01:43:52,-1.4,93.1,-2.4,
2024-04-19 01:42:52,-1.5,92.9,-2.4,
2024-04-19 01:41:52,-1.5,93.1,-2.4,
2024-04-19 01:40:52,-1.5,93.0,-2.5,
2024-04-19 01:39:52,-1.5,93.0,-2.5,
2024-04-19 01:38:52,-1.5,93.2,-2.5,
2024-04-19 01:37:52,-1.6,93.6,-2.5,
2024-04-19 01:36:52,-1.6,93.7,-2.5,
2024-04-19 01:35:52,-1.7,93.9,-2.5,
2024-04-19 01:34:52,-1.7,94.0,-2.5,
2024-04-19 01:33:52,-1.7,93.8,-2.6,
2024-04-19 01:32:52,-1.7,93.9,-2.6,
2024-04-19 01:31:52,-1.7,94.0,-2.6,
2024-04-19 01:30:52,-1.8,94.3,-2.6,
2024-04-19 01:29:52,-1.8,94.2,-2.6,
2024-04-19 01:28:52,-1.8,94.2,-2.6,
2024-04-19 01:27:52,-1.8,94.3,-2.6,
2024-04-19 01:26:52,-1.8,94.5,-2.6,
2024-04-19 01:25:52,-1.9,94.7,-2.6,
2024-04-19 01:24:52,-1.9,95.0,-2.6,
2024-04-19 01:23:52,-2.0,95.0,-2.7,
2024-04-19 01:22:52,-2.0,95.0,-2.7,
2024-04-19 01:21:52,-2.1,95.0,-2.8,
2024-04-19 01:20:52,-2.1,95.1,-2.8,
2024-04-19 01:19:52,-2.2,95.0,-2.8,
2024-04-19 01:18:52,-2.2,95.0,-2.9,
2024-04-19 01:17:52,-2.2,94.9,-2.9,
2024-04-19 01:16:52,-2.2,94.7,-3.0,
2024-04-19 01:15:52,-2.2,94.5,-3.0,
2024-04-19 01:14:52,-2.2,94.4,-3.0,
2024-04-19 01:13:52,-2.2,94.4,-3.0,
2024-04-19 01:12:52,-2.2,94.4,-2.9,
2024-04-19 01:11:52,-2.1,94.5,-2.9,
2024-04-19 01:10:52,-2.1,94.5,-2.9,
2024-04-19 01:09:52,-2.1,94.5,-2.9,
2024-04-19 01:08:52,-2.1,94.5,-2.9,
2024-04-19 01:07:52,-2.1,94.5,-2.9,
2024-04-19 01:06:52,-2.1,94.5,-2.8,
2024-04-19 01:05:52,-2.0,94.7,-2.8,
2024-04-19 01:04:52,-2.0,94.8,-2.8,
2024-04-19 01:03:52,-2.0,94.7,-2.8,
2024-04-19 01:02:52,-2.0,94.7,-2.8,
2024-04-19 01:01:52,-2.0,94.8,-2.7,
2024-04-19 01:00:52,-2.0,94.8,-2.7,
2024-04-19 00:59:52,-2.0,94.9,-2.7,
2024-04-19 00:58:52,-2.0,94.9,-2.7,
2024-04-19 00:57:52,-2.0,95.0,-2.7,
2024-04-19 00:56:52,-2.0,94.9,-2.7,
2024-04-19 00:55:52,-2.0,94.8,-2.7,
2024-04-19 00:54:52,-2.0,94.7,-2.8,
2024-04-19 00:53:52,-2.1,94.5,-2.8,
2024-04-19 00:52:52,-2.0,94.4,-2.8,
2024-04-19 00:51:52,-2.0,94.3,-2.8,
2024-04-19 00:50:52,-2.0,94.3,-2.8,
2024-04-19 00:49:52,-2.0,94.3,-2.8,
2024-04-19 00:48:52,-1.9,94.3,-2.7,
2024-04-19 00:47:52,-1.9,94.2,-2.7,
2024-04-19 00:46:52,-1.9,94.3,-2.7,
2024-04-19 00:45:52,-1.9,94.2,-2.7,
2024-04-19 00:44:52,-1.9,94.1,-2.7,
2024-04-19 00:43:52,-1.9,93.9,-2.7,
2024-04-19 00:42:52,-1.8,93.6,-2.7,
2024-04-19 00:41:52,-1.8,93.4,-2.8,
2024-04-19 00:40:52,-1.8,93.2,-2.7,
2024-04-19 00:39:52,-1.8,93.1,-2.7,
2024-04-19 00:38:52,-1.7,93.1,-2.7,
2024-04-19 00:37:52,-1.7,92.8,-2.7,
2024-04-19 00:36:52,-1.7,92.5,-2.8,
2024-04-19 00:35:52,-1.7,92.3,-2.8,
2024-04-19 00:34:52,-1.7,92.3,-2.7,
2024-04-19 00:33:52,-1.7,92.3,-2.7,
2024-04-19 00:32:52,-1.6,92.7,-2.7,
2024-04-19 00:31:52,-1.6,93.0,-2.6,
2024-04-19 00:30:52,-1.7,93.2,-2.6,
2024-04-19 00:29:52,-1.7,93.6,-2.6,
2024-04-19 00:28:52,-1.7,94.0,-2.6,
2024-04-19 00:27:52,-1.7,94.1,-2.6,
2024-04-19 00:26:52,-1.7,94.0,-2.6,
2024-04-19 00:25:52,-1.7,93.9,-2.6,
2024-04-19 00:24:52,-1.7,93.9,-2.6,
2024-04-19 00:23:52,-1.7,93.9,-2.5,
2024-04-19 00:22:52,-1.7,93.9,-2.5,
2024-04-19 00:21:52,-1.6,94.0,-2.5,
2024-04-19 00:20:52,-1.6,93.9,-2.5,
2024-04-19 00:19:52,-1.6,93.9,-2.5,
2024-04-19 00:18:52,-1.6,93.9,-2.5,
2024-04-19 00:17:52,-1.6,93.9,-2.5,
2024-04-19 00:16:52,-1.6,93.6,-2.5,
2024-04-19 00:15:52,-1.6,93.4,-2.5,
2024-04-19 00:14:52,-1.6,93.4,-2.5,
2024-04-19 00:13:52,-1.6,93.4,-2.5,
2024-04-19 00:12:52,-1.5,93.4,-2.5,
2024-04-19 00:11:52,-1.5,93.4,-2.4,
2024-04-19 00:10:52,-1.5,93.4,-2.4,
2024-04-19 00:09:52,-1.5,93.6,-2.4,
2024-04-19 00:08:52,-1.5,93.6,-2.4,
2024-04-19 00:07:52,-1.5,93.7,-2.4,
2024-04-19 00:06:52,-1.6,93.7,-2.4,
2024-04-19 00:05:52,-1.6,93.8,-2.4,
2024-04-19 00:04:52,-1.6,94.0,-2.4,
2024-04-19 00:03:52,-1.6,94.0,-2.4,
2024-04-19 00:02:52,-1.6,94.1,-2.4,
2024-04-19 00:01:52,-1.6,94.1,-2.4,
2024-04-19 00:00:52,-1.6,94.2,-2.4,
2024-04-18 23:59:52,-1.6,94.2,-2.4,
2024-04-18 23:58:52,-1.6,94.2,-2.4,
2024-04-18 23:57:52,-1.6,94.2,-2.4,
2024-04-18 23:56:52,-1.6,94.2,-2.4,
2024-04-18 23:55:52,-1.7,94.2,-2.5,
2024-04-18 23:54:52,-1.7,94.2,-2.5,
2024-04-18 23:53:52,-1.7,93.9,-2.6,
2024-04-18 23:52:52,-1.7,94.1,-2.6,
2024-04-18 23:51:52,-1.8,93.8,-2.6,
2024-04-18 23:50:52,-1.8,93.6,-2.7,
2024-04-18 23:49:52,-1.8,93.4,-2.7,
2024-04-18 23:48:52,-1.7,93.4,-2.7,
2024-04-18 23:47:52,-1.7,93.1,-2.7,
2024-04-18 23:46:52,-1.7,93.2,-2.7,
2024-04-18 23:45:52,-1.7,92.9,-2.7,
2024-04-18 23:44:52,-1.7,92.6,-2.7,
2024-04-18 23:43:52,-1.6,92.6,-2.7,
2024-04-18 23:42:52,-1.6,92.5,-2.7,
2024-04-18 23:41:52,-1.6,92.1,-2.7,
2024-04-18 23:40:52,-1.5,92.0,-2.7,
2024-04-18 23:39:52,-1.5,91.7,-2.7,
2024-04-18 23:38:52,-1.5,91.6,-2.6,
2024-04-18 23:37:52,-1.4,91.4,-2.6,
2024-04-18 23:36:52,-1.4,91.2,-2.6,
2024-04-18 23:35:52,-1.3,91.1,-2.6,
2024-04-18 23:34:52,-1.3,90.8,-2.6,
2024-04-18 23:33:52,-1.2,90.8,-2.5,
2024-04-18 23:32:52,-1.2,90.8,-2.5,
2024-04-18 23:31:52,-1.2,90.6,-2.5,
2024-04-18 23:30:52,-1.2,90.2,-2.6,
2024-04-18 23:29:52,-1.2,90.3,-2.6,
2024-04-18 23:28:52,-1.2,90.4,-2.6,
2024-04-18 23:27:52,-1.3,90.4,-2.6,
2024-04-18 23:26:52,-1.3,90.5,-2.6,
2024-04-18 23:25:52,-1.3,90.7,-2.6,
2024-04-18 23:24:52,-1.3,90.9,-2.6,
2024-04-18 23:23:52,-1.3,91.1,-2.6,
2024-04-18 23:22:52,-1.3,91.0,-2.6,
2024-04-18 23:21:52,-1.3,90.9,-2.6,
2024-04-18 23:20:52,-1.3,90.8,-2.6,
2024-04-18 23:19:52,-1.3,90.7,-2.6,
2024-04-18 23:18:52,-1.3,90.7,-2.6,
2024-04-18 23:17:52,-1.3,90.8,-2.6,
2024-04-18 23:16:52,-1.3,90.9,-2.6,
2024-04-18 23:15:52,-1.3,91.1,-2.5,
2024-04-18 23:14:52,-1.3,90.9,-2.6,
2024-04-18 23:13:52,-1.3,90.5,-2.6,
2024-04-18 23:12:52,-1.2,90.4,-2.6,
2024-04-18 23:11:52,-1.2,90.2,-2.6,
2024-04-18 23:10:52,-1.3,90.1,-2.7,
2024-04-18 23:09:52,-1.3,90.1,-2.7,
2024-04-18 23:08:52,-1.3,90.1,-2.7,
2024-04-18 23:07:52,-1.3,90.2,-2.7,
2024-04-18 23:06:52,-1.3,90.3,-2.7,
2024-04-18 23:05:52,-1.3,90.4,-2.6,
2024-04-18 23:04:52,-1.2,90.5,-2.6,
2024-04-18 23:03:52,-1.2,90.6,-2.6,
2024-04-18 23:02:52,-1.2,90.4,-2.6,
2024-04-18 23:01:52,-1.2,90.1,-2.6,
2024-04-18 23:00:52,-1.2,89.9,-2.6,
2024-04-18 22:59:52,-1.1,89.7,-2.6,
2024-04-18 22:58:52,-1.1,89.3,-2.6,
2024-04-18 22:57:52,-1.0,89.1,-2.6,
2024-04-18 22:56:52,-1.0,88.8,-2.6,
2024-04-18 22:55:52,-1.0,88.9,-2.6,
2024-04-18 22:54:52,-0.9,88.9,-2.5,
2024-04-18 22:53:52,-0.9,88.9,-2.5,
2024-04-18 22:52:52,-0.9,89.0,-2.5,
2024-04-18 22:51:52,-0.9,89.1,-2.5,
2024-04-18 22:50:52,-0.9,89.1,-2.5,
2024-04-18 22:49:52,-0.9,88.9,-2.5,
2024-04-18 22:48:52,-0.9,88.8,-2.5,
2024-04-18 22:47:52,-0.8,88.5,-2.5,
2024-04-18 22:46:52,-0.8,88.4,-2.5,
2024-04-18 22:45:52,-0.8,88.3,-2.5,
2024-04-18 22:44:52,-0.8,88.4,-2.5,
2024-04-18 22:43:52,-0.8,88.3,-2.5,
2024-04-18 22:42:52,-0.7,88.1,-2.4,
2024-04-18 22:41:52,-0.6,87.6,-2.4,
2024-04-18 22:40:52,-0.6,86.8,-2.5,
2024-04-18 22:39:52,-0.6,87.0,-2.5,
2024-04-18 22:38:52,-0.6,87.3,-2.5,
2024-04-18 22:37:52,-0.6,87.6,-2.4,
2024-04-18 22:36:52,-0.6,87.5,-2.4,
2024-04-18 22:35:52,-0.6,87.5,-2.4,
2024-04-18 22:34:52,-0.6,87.5,-2.4,
2024-04-18 22:33:52,-0.6,87.5,-2.4,
2024-04-18 22:32:52,-0.6,87.4,-2.5,
2024-04-18 22:31:52,-0.6,87.3,-2.4,
2024-04-18 22:30:52,-0.6,87.4,-2.4,
2024-04-18 22:29:52,-0.5,87.6,-2.3,
2024-04-18 22:28:52,-0.5,87.5,-2.3,
2024-04-18 22:27:52,-0.5,87.3,-2.3,
2024-04-18 22:26:52,-0.5,87.3,-2.3,
2024-04-18 22:25:52,-0.5,87.3,-2.3,
2024-04-18 22:24:52,-0.5,87.2,-2.3,
2024-04-18 22:23:52,-0.4,86.9,-2.3,
2024-04-18 22:22:52,-0.4,86.6,-2.3,
2024-04-18 22:21:52,-0.3,86.8,-2.3,
2024-04-18 22:20:52,-0.3,86.6,-2.2,
2024-04-18 22:19:52,-0.2,86.6,-2.2,
2024-04-18 22:18:52,-0.2,86.6,-2.2,
2024-04-18 22:17:52,-0.2,86.3,-2.3,
2024-04-18 22:16:52,-0.2,86.5,-2.2,
2024-04-18 22:15:52,-0.2,86.6,-2.2,
2024-04-18 22:14:52,-0.3,86.6,-2.2,
2024-04-18 22:13:52,-0.3,86.6,-2.2,
2024-04-18 22:12:52,-0.3,86.6,-2.2,
2024-04-18 22:11:52,-0.3,86.3,-2.3,
2024-04-18 22:10:52,-0.3,86.5,-2.3,
2024-04-18 22:09:52,-0.2,86.4,-2.2,
2024-04-18 22:08:52,-0.2,86.3,-2.2,
2024-04-18 22:07:52,-0.2,86.3,-2.2,
2024-04-18 22:06:52,-0.1,86.1,-2.2,
2024-04-18 22:05:52,-0.1,85.9,-2.2,
2024-04-18 22:04:52,0.0,85.6,-2.2,
2024-04-18 22:03:52,0.0,85.2,-2.2,
2024-04-18 22:02:52,0.1,84.9,-2.1,
2024-04-18 22:01:52,0.1,84.4,-2.2,
2024-04-18 22:00:52,0.2,84.1,-2.2,
2024-04-18 21:59:52,0.3,83.7,-2.1,
2024-04-18 21:58:52,0.3,83.6,-2.1,
2024-04-18 21:57:52,0.4,83.6,-2.0,
2024-04-18 21:56:52,0.5,83.2,-2.0,
2024-04-18 21:55:52,0.5,83.2,-2.0,
2024-04-18 21:54:52,0.5,83.4,-2.0,
2024-04-18 21:53:52,0.4,83.7,-2.0,
2024-04-18 21:52:52,0.3,84.1,-2.1,
2024-04-18 21:51:52,0.2,84.7,-2.1,
2024-04-18 21:50:52,0.1,85.1,-2.1,
2024-04-18 21:49:52,0.0,84.8,-2.2,
2024-04-18 21:48:52,0.1,84.4,-2.2,
2024-04-18 21:47:52,0.2,84.0,-2.2,
2024-04-18 21:46:52,0.3,83.7,-2.2,
2024-04-18 21:45:52,0.3,83.4,-2.1,
2024-04-18 21:44:52,0.4,83.0,-2.1,
2024-04-18 21:43:52,0.5,82.9,-2.1,
2024-04-18 21:42:52,0.6,82.6,-2.1,
2024-04-18 21:41:52,0.6,82.5,-2.0,
2024-04-18 21:40:52,0.6,82.0,-2.1,
2024-04-18 21:39:52,0.7,81.5,-2.1,
2024-04-18 21:38:52,0.8,81.3,-2.1,
2024-04-18 21:37:52,0.9,80.7,-2.0,
2024-04-18 21:36:52,1.0,80.3,-2.0,
2024-04-18 21:35:52,1.1,79.3,-2.0,
2024-04-18 21:34:52,1.3,78.7,-2.0,
2024-04-18 21:33:52,1.3,78.3,-2.0,
2024-04-18 21:32:52,1.3,78.3,-2.0,
2024-04-18 21:31:52,1.3,78.5,-2.0,
2024-04-18 21:30:52,1.3,78.6,-2.0,
2024-04-18 21:29:52,1.3,78.3,-2.0,
2024-04-18 21:28:52,1.4,78.1,-2.0,
2024-04-18 21:27:52,1.4,77.9,-2.0,
2024-04-18 21:26:52,1.3,78.2,-2.0,
2024-04-18 21:25:52,1.4,77.9,-2.0,
2024-04-18 21:24:52,1.4,77.7,-2.0,
2024-04-18 21:23:52,1.4,77.4,-2.1,
2024-04-18 21:22:52,1.5,77.2,-2.1,
2024-04-18 21:21:52,1.5,76.9,-2.1,
2024-04-18 21:20:52,1.5,77.0,-2.1,
2024-04-18 21:19:52,1.6,76.9,-2.0,
2024-04-18 21:18:52,1.6,77.0,-2.0,
2024-04-18 21:17:52,1.6,76.5,-2.0,
2024-04-18 21:16:52,1.7,76.5,-2.0,
2024-04-18 21:15:52,1.7,76.3,-2.0,
2024-04-18 21:14:52,1.6,76.5,-2.1,
2024-04-18 21:13:52,1.6,76.5,-2.1,
2024-04-18 21:12:52,1.6,76.9,-2.0,
2024-04-18 21:11:52,1.6,76.3,-2.1,
2024-04-18 21:10:52,1.6,76.2,-2.1,
2024-04-18 21:09:52,1.7,76.1,-2.0,
2024-04-18 21:08:52,1.7,75.7,-2.1,
2024-04-18 21:07:52,1.7,76.4,-2.0,
2024-04-18 21:06:52,1.7,77.4,-1.8,
2024-04-18 21:05:52,1.7,77.3,-1.8,
2024-04-18 21:04:52,1.7,76.9,-1.9,
2024-04-18 21:03:52,1.8,75.0,-2.1,
2024-04-18 21:02:52,1.8,74.7,-2.2,
2024-04-18 21:01:52,1.8,73.8,-2.3,
2024-04-18 21:00:52,1.8,73.9,-2.3,
2024-04-18 20:59:52,1.8,73.7,-2.4,
2024-04-18 20:58:52,1.8,74.2,-2.3,
2024-04-18 20:57:52,1.7,74.0,-2.4,
2024-04-18 20:56:52,1.7,74.4,-2.4,
2024-04-18 20:55:52,1.7,74.2,-2.4,
2024-04-18 20:54:52,1.6,74.5,-2.4,
2024-04-18 20:53:52,1.6,74.8,-2.4,
2024-04-18 20:52:52,1.6,75.1,-2.4,
2024-04-18 20:51:52,1.6,75.1,-2.3,
2024-04-18 20:50:52,1.6,74.7,-2.4,
2024-04-18 20:49:52,1.5,75.3,-2.4,
2024-04-18 20:48:52,1.5,75.1,-2.4,
2024-04-18 20:47:52,1.5,75.1,-2.4,
2024-04-18 20:46:52,1.5,75.0,-2.5,
2024-04-18 20:45:52,1.4,74.9,-2.5,
2024-04-18 20:44:52,1.4,75.3,-2.5,
2024-04-18 20:43:52,1.4,75.2,-2.5,
2024-04-18 20:42:52,1.3,75.3,-2.5,
2024-04-18 20:41:52,1.3,75.4,-2.5,
2024-04-18 20:40:52,1.3,75.8,-2.5,
2024-04-18 20:39:52,1.3,75.8,-2.5,
2024-04-18 20:38:52,1.3,75.8,-2.5,
2024-04-18 20:37:52,1.3,75.8,-2.5,
2024-04-18 20:36:52,1.3,76.1,-2.4,
2024-04-18 20:35:52,1.3,75.8,-2.4,
2024-04-18 20:34:52,1.4,75.8,-2.4,
2024-04-18 20:33:52,1.4,75.6,-2.4,
2024-04-18 20:32:52,1.4,75.8,-2.4,
2024-04-18 20:31:52,1.3,76.3,-2.3,
2024-04-18 20:30:52,1.3,76.3,-2.4,
2024-04-18 20:29:52,1.2,76.8,-2.4,
2024-04-18 20:28:52,1.1,77.5,-2.4,
2024-04-18 20:27:52,1.0,78.1,-2.4,
2024-04-18 20:26:52,0.9,78.3,-2.4,
2024-04-18 20:25:52,0.8,78.8,-2.4,
2024-04-18 20:24:52,0.7,79.3,-2.4,
2024-04-18 20:23:52,0.7,79.5,-2.4,
2024-04-18 20:22:52,0.6,80.0,-2.4,
2024-04-18 20:21:52,0.5,80.4,-2.4,
2024-04-18 20:20:52,0.6,80.3,-2.4,
2024-04-18 20:19:52,0.6,79.8,-2.4,
2024-04-18 20:18:52,0.7,79.5,-2.4,
2024-04-18 20:17:52,0.8,78.7,-2.4,
2024-04-18 20:16:52,0.9,78.5,-2.4,
2024-04-18 20:15:52,1.0,78.1,-2.4,
2024-04-18 20:14:52,1.0,77.9,-2.4,
2024-04-18 20:13:52,1.1,77.5,-2.4,
2024-04-18 20:12:52,1.1,77.5,-2.3,
2024-04-18 20:11:52,1.2,77.2,-2.3,
2024-04-18 20:10:52,1.2,77.2,-2.3,
2024-04-18 20:09:52,1.2,76.7,-2.4,
2024-04-18 20:08:52,1.2,76.8,-2.4,
2024-04-18 20:07:52,1.3,76.5,-2.4,
2024-04-18 20:06:52,1.3,76.2,-2.4,
2024-04-18 20:05:52,1.3,76.1,-2.4,
2024-04-18 20:04:52,1.3,76.1,-2.4,
2024-04-18 20:03:52,1.3,76.1,-2.4,
2024-04-18 20:02:52,1.3,76.2,-2.4,
2024-04-18 20:01:52,1.3,76.3,-2.4,
2024-04-18 20:00:52,1.2,76.4,-2.4,
2024-04-18 19:59:52,1.2,76.6,-2.4,
2024-04-18 19:58:52,1.2,76.4,-2.4,
2024-04-18 19:57:52,1.2,76.3,-2.4,
2024-04-18 19:56:52,1.3,76.3,-2.4,
2024-04-18 19:55:52,1.3,76.3,-2.4,
2024-04-18 19:54:52,1.3,76.4,-2.4,
2024-04-18 19:53:52,1.3,76.2,-2.4,
2024-04-18 19:52:52,1.3,76.3,-2.4,
2024-04-18 19:51:52,1.4,76.0,-2.4,
2024-04-18 19:50:52,1.4,75.7,-2.4,
2024-04-18 19:49:52,1.4,75.6,-2.4,
2024-04-18 19:48:52,1.4,75.6,-2.4,
2024-04-18 19:47:52,1.4,75.5,-2.4,
2024-04-18 19:46:52,1.4,75.8,-2.4,
2024-04-18 19:45:52,1.4,75.6,-2.4,
2024-04-18 19:44:52,1.4,75.8,-2.4,
2024-04-18 19:43:52,1.4,76.0,-2.4,
2024-04-18 19:42:52,1.4,76.0,-2.4,
2024-04-18 19:41:52,1.4,75.8,-2.4,
2024-04-18 19:40:52,1.5,75.5,-2.4,
2024-04-18 19:39:52,1.5,75.3,-2.4,
2024-04-18 19:38:52,1.6,75.1,-2.4,
2024-04-18 19:37:52,1.6,75.0,-2.4,
2024-04-18 19:36:52,1.6,75.1,-2.3,
2024-04-18 19:35:52,1.6,75.1,-2.4,
2024-04-18 19:34:52,1.6,75.2,-2.3,
2024-04-18 19:33:52,1.6,75.1,-2.3,
2024-04-18 19:32:52,1.6,75.3,-2.3,
2024-04-18 19:31:52,1.6,74.9,-2.4,
2024-04-18 19:30:52,1.7,74.7,-2.3,
2024-04-18 19:29:52,1.7,74.6,-2.3,
2024-04-18 19:28:52,1.7,74.7,-2.3,
2024-04-18 19:27:52,1.6,74.7,-2.4,
2024-04-18 19:26:52,1.7,75.2,-2.2,
2024-04-18 19:25:52,1.7,74.7,-2.3,
2024-04-18 19:24:52,1.7,74.9,-2.2,
2024-04-18 19:23:52,1.7,75.2,-2.2,
2024-04-18 19:22:52,1.7,74.7,-2.3,
2024-04-18 19:21:52,1.7,74.9,-2.2,
2024-04-18 19:20:52,1.7,75.4,-2.2,
2024-04-18 19:19:52,1.8,75.2,-2.1,
2024-04-18 19:18:52,1.8,74.7,-2.2,
2024-04-18 19:17:52,1.8,75.5,-2.1,
2024-04-18 19:16:52,1.7,76.1,-2.0,
2024-04-18 19:15:52,1.7,76.2,-2.0,
2024-04-18 19:14:52,1.7,76.5,-2.0,
2024-04-18 19:13:52,1.7,76.2,-2.0,
2024-04-18 19:12:52,1.8,76.2,-2.0,
2024-04-18 19:11:52,1.8,75.9,-2.0,
2024-04-18 19:10:52,1.8,76.3,-1.9,
2024-04-18 19:09:52,1.8,76.4,-1.9,
2024-04-18 19:08:52,1.8,76.3,-1.9,
2024-04-18 19:07:52,1.8,77.2,-1.8,
2024-04-18 19:06:52,1.8,76.9,-1.8,
2024-04-18 19:05:52,1.8,76.9,-1.8,
2024-04-18 19:04:52,1.8,76.7,-1.8,
2024-04-18 19:03:52,1.7,77.6,-1.7,
2024-04-18 19:02:52,1.8,77.8,-1.7,
2024-04-18 19:01:52,1.8,77.5,-1.7,
2024-04-18 19:00:52,1.8,77.6,-1.7,
2024-04-18 18:59:52,1.8,78.0,-1.6,
2024-04-18 18:58:52,1.9,76.9,-1.7,
2024-04-18 18:57:52,1.9,77.2,-1.7,
2024-04-18 18:56:52,1.8,77.2,-1.8,
2024-04-18 18:55:52,1.7,79.1,-1.5,
2024-04-18 18:54:52,1.7,79.5,-1.5,
2024-04-18 18:53:52,1.6,79.5,-1.5,
2024-04-18 18:52:52,1.6,79.7,-1.5,
2024-04-18 18:51:52,1.7,80.2,-1.4,
2024-04-18 18:50:52,1.7,79.9,-1.4,
2024-04-18 18:49:52,1.6,80.3,-1.4,
2024-04-18 18:48:52,1.6,80.9,-1.3,
2024-04-18 18:47:52,1.7,80.0,-1.4,
2024-04-18 18:46:52,1.8,79.3,-1.4,
2024-04-18 18:45:52,1.8,79.1,-1.4,
2024-04-18 18:44:52,1.9,78.6,-1.4,
2024-04-18 18:43:52,1.9,79.0,-1.3,
2024-04-18 18:42:52,2.0,78.3,-1.3,
2024-04-18 18:41:52,2.1,77.8,-1.3,
2024-04-18 18:40:52,2.1,77.6,-1.4,
2024-04-18 18:39:52,2.1,78.4,-1.2,
2024-04-18 18:38:52,2.1,77.9,-1.3,
2024-04-18 18:37:52,2.1,78.5,-1.2,
2024-04-18 18:36:52,2.2,78.8,-1.1,
2024-04-18 18:35:52,2.2,77.8,-1.2,
2024-04-18 18:34:52,2.3,77.8,-1.2,
2024-04-18 18:33:52,2.3,77.8,-1.2,
2024-04-18 18:32:52,2.4,77.9,-1.1,
2024-04-18 18:31:52,2.4,76.6,-1.2,
2024-04-18 18:30:52,2.4,77.2,-1.1,
2024-04-18 18:29:52,2.5,77.6,-1.0,
2024-04-18 18:28:52,2.5,77.2,-1.1,
2024-04-18 18:27:52,2.6,77.2,-1.0,
2024-04-18 18:26:52,2.6,76.4,-1.1,
2024-04-18 18:25:52,2.6,76.7,-1.1,
2024-04-18 18:24:52,2.6,77.7,-0.9,
2024-04-18 18:23:52,2.7,76.4,-1.1,
2024-04-18 18:22:52,2.7,78.0,-0.7,
2024-04-18 18:21:52,2.8,77.6,-0.7,
2024-04-18 18:20:52,2.8,76.8,-0.9,
2024-04-18 18:19:52,2.7,77.5,-0.8,
2024-04-18 18:18:52,2.7,77.3,-0.8,
2024-04-18 18:17:52,2.7,78.5,-0.6,
2024-04-18 18:16:52,2.7,79.1,-0.5,
2024-04-18 18:15:52,2.7,78.5,-0.6,
2024-04-18 18:14:52,2.8,78.0,-0.6,
2024-04-18 18:13:52,2.9,77.4,-0.7,
2024-04-18 18:12:52,2.9,76.5,-0.8,
2024-04-18 18:11:52,2.9,76.9,-0.7,
2024-04-18 18:10:52,2.9,75.4,-1.0,
2024-04-18 18:09:52,2.9,76.5,-0.8,
2024-04-18 18:08:52,2.8,79.1,-0.5,
2024-04-18 18:07:52,2.7,79.3,-0.5,
2024-04-18 18:06:52,2.6,79.1,-0.7,
2024-04-18 18:05:52,2.5,78.4,-0.9,
2024-04-18 18:04:52,2.5,79.4,-0.7,
2024-04-18 18:03:52,2.4,78.6,-0.9,
2024-04-18 18:02:52,2.4,79.4,-0.8,
2024-04-18 18:01:52,2.4,79.1,-0.9,
2024-04-18 18:00:52,2.3,79.3,-0.9,
2024-04-18 17:59:52,2.2,80.5,-0.8,
2024-04-18 17:58:52,2.2,80.6,-0.8,
2024-04-18 17:57:52,2.1,80.3,-0.9,
2024-04-18 17:56:52,2.0,80.9,-0.9,
2024-04-18 17:55:52,2.0,81.5,-0.8,
2024-04-18 17:54:52,2.0,81.0,-0.9,
2024-04-18 17:53:52,2.0,81.7,-0.8,
2024-04-18 17:52:52,2.0,82.5,-0.7,
2024-04-18 17:51:52,1.9,82.6,-0.7,
2024-04-18 17:50:52,1.9,82.5,-0.7,
2024-04-18 17:49:52,1.8,82.5,-0.8,
2024-04-18 17:48:52,1.8,82.8,-0.8,
2024-04-18 17:47:52,1.9,82.9,-0.7,
2024-04-18 17:46:52,1.9,82.9,-0.7,
2024-04-18 17:45:52,1.9,83.6,-0.5,
2024-04-18 17:44:52,2.0,83.1,-0.6,
2024-04-18 17:43:52,2.0,83.0,-0.6,
2024-04-18 17:42:52,2.1,82.7,-0.5,
2024-04-18 17:41:52,2.1,83.1,-0.5,
2024-04-18 17:40:52,2.1,83.5,-0.4,
2024-04-18 17:39:52,2.1,82.7,-0.5,
2024-04-18 17:38:52,2.2,82.5,-0.5,
2024-04-18 17:37:52,2.1,81.4,-0.7,
2024-04-18 17:36:52,2.1,82.4,-0.5,
2024-04-18 17:35:52,2.1,82.7,-0.5,
2024-04-18 17:34:52,2.1,84.4,-0.2,
2024-04-18 17:33:52,2.1,84.6,-0.2,
2024-04-18 17:32:52,2.1,84.4,-0.2,
2024-04-18 17:31:52,2.1,84.1,-0.3,
2024-04-18 17:30:52,2.1,85.1,-0.1,
2024-04-18 17:29:52,2.2,85.8,0.1,
2024-04-18 17:28:52,2.3,84.8,0.0,
2024-04-18 17:27:52,2.4,84.6,0.0,
2024-04-18 17:26:52,2.5,83.3,-0.1,
2024-04-18 17:25:52,2.6,82.7,0.0,
2024-04-18 17:24:52,2.8,79.2,-0.5,
2024-04-18 17:23:52,2.9,77.4,-0.6,
2024-04-18 17:22:52,3.1,74.2,-1.0,
2024-04-18 17:21:52,3.3,71.3,-1.4,
2024-04-18 17:20:52,3.5,69.1,-1.6,
2024-04-18 17:19:52,3.6,68.2,-1.7,
2024-04-18 17:18:52,3.6,67.6,-1.8,
2024-04-18 17:17:52,3.6,66.5,-2.0,
2024-04-18 17:16:52,3.6,65.7,-2.2,
2024-04-18 17:15:52,3.6,64.2,-2.5,
2024-04-18 17:14:52,3.6,64.8,-2.4,
2024-04-18 17:13:52,3.6,65.4,-2.3,
2024-04-18 17:12:52,3.5,64.8,-2.4,
2024-04-18 17:11:52,3.4,64.5,-2.6,
2024-04-18 17:10:52,3.4,65.4,-2.5,
2024-04-18 17:09:52,3.4,67.9,-2.0,
2024-04-18 17:08:52,3.4,70.2,-1.5,
2024-04-18 17:07:52,3.5,71.1,-1.2,
2024-04-18 17:06:52,3.5,69.5,-1.5,
2024-04-18 17:05:52,3.7,68.0,-1.6,
2024-04-18 17:04:52,3.9,69.8,-1.1,
2024-04-18 17:03:52,4.0,68.2,-1.3,
2024-04-18 17:02:52,4.0,68.8,-1.2,
2024-04-18 17:01:52,4.0,68.5,-1.3,
2024-04-18 17:00:52,3.9,68.4,-1.4,
2024-04-18 16:59:52,3.9,69.4,-1.2,
2024-04-18 16:58:52,3.8,70.5,-1.0,
2024-04-18 16:57:52,3.7,70.9,-1.0,
2024-04-18 16:56:52,3.6,70.0,-1.3,
2024-04-18 16:55:52,3.6,70.4,-1.3,
2024-04-18 16:54:52,3.5,71.9,-1.1,
2024-04-18 16:53:52,3.3,72.5,-1.1,
2024-04-18 16:52:52,3.1,72.5,-1.3,
2024-04-18 16:51:52,2.9,73.5,-1.4,
2024-04-18 16:50:52,2.8,73.4,-1.4,
2024-04-18 16:49:52,2.8,72.7,-1.5,
2024-04-18 16:48:52,2.9,73.0,-1.4,
2024-04-18 16:47:52,3.0,72.3,-1.5,
2024-04-18 16:46:52,3.0,73.2,-1.3,
2024-04-18 16:45:52,3.2,71.9,-1.4,
2024-04-18 16:44:52,3.3,72.3,-1.2,
2024-04-18 16:43:52,3.3,71.4,-1.3,
2024-04-18 16:42:52,3.5,70.1,-1.4,
2024-04-18 16:41:52,3.8,69.5,-1.2,
2024-04-18 16:40:52,4.1,68.0,-1.2,
2024-04-18 16:39:52,4.3,69.2,-0.8,
2024-04-18 16:38:52,4.5,69.0,-0.7,
2024-04-18 16:37:52,4.5,67.6,-0.9,
2024-04-18 16:36:52,4.5,68.9,-0.6,
2024-04-18 16:35:52,4.5,68.1,-0.8,
2024-04-18 16:34:52,4.5,68.9,-0.7,
2024-04-18 16:33:52,4.5,69.4,-0.6,
2024-04-18 16:32:52,4.4,68.2,-0.9,
2024-04-18 16:31:52,4.1,69.8,-0.9,
2024-04-18 16:30:52,3.7,71.4,-1.0,
2024-04-18 16:29:52,3.3,71.5,-1.3,
2024-04-18 16:28:52,3.2,72.8,-1.2,
2024-04-18 16:27:52,3.2,72.5,-1.3,